Date String (YYYY-MM-DD hh:mm:ss) UTC,Instrument flags,absolute air pressure of the measurement (hPa),sample flow rate (lpm),inlet stack bypass flow (lpm),air temperature of the measurement (°C),ambient temperature measured by the external sensor (°C),aerosol sample conditioner tube jacket temperature (°C),OPC LED temperature (°C),internal box temperature (°C),relative humidity of the measurement (%),span deviation,mass concentration of particles derived from Lorenz-Mie calculation of OPC scattering (μg/m³),mass concentration of particles derived from Lorenz-Mie calculation of OPC scattering (μg/m³),mass concentration of particles derived from Lorenz-Mie calculation of OPC scattering (μg/m³)
DateTimeUTC,F1_M11,P_M11,Q1_M11,Q2_M11,T1_M11,T2_M11,T3_M11,T4_M11,T5_M11,U1_M11,ZSPAN_M11,X2_M11,X0_M11,X1_M11
2024-04-26 22:00:00,SystemResetWarning,0816.1,5.01,000.00,025.5,025.0,000.0,033.7,027.5,017.9,0000.0,0002.70,0010.32,0001.86
2024-04-26 22:01:00,SystemResetWarning,0816.1,5.01,000.00,025.6,025.1,000.0,033.7,027.5,017.5,0000.0,0002.65,0010.23,0001.84
2024-04-26 22:02:00,SystemResetWarning,0816.1,4.99,000.00,025.6,025.1,000.0,033.7,027.6,017.4,0000.0,0002.59,0010.51,0001.81
2024-04-26 22:03:00,SystemResetWarning,0816.1,4.99,000.00,025.7,025.2,000.0,033.8,027.6,017.3,0000.0,0002.58,0010.70,0001.79
2024-04-26 22:04:00,SystemResetWarning,0816.1,5.00,000.00,025.7,025.3,000.0,033.8,027.7,017.9,0000.0,0002.58,0010.42,0001.77
2024-04-26 22:05:00,SystemResetWarning,0816.1,5.01,000.00,025.8,025.3,000.0,033.9,027.7,018.4,0000.0,0002.51,0009.41,0001.74
2024-04-26 22:06:00,SystemResetWarning,0816.1,4.97,000.00,025.7,024.1,000.0,033.9,027.0,018.0,0000.0,0002.43,0009.14,0001.72
2024-04-26 22:07:00,SystemResetWarning,0816.1,5.02,000.00,025.3,022.5,000.0,034.0,026.1,018.3,0000.0,0002.46,0009.77,0001.70
2024-04-26 22:08:00,SystemResetWarning,0816.1,5.01,000.00,025.1,022.5,000.0,033.9,026.0,018.3,0000.0,0002.37,0008.83,0001.66
2024-04-26 22:09:00,SystemResetWarning,0816.1,4.99,000.00,025.0,022.8,000.0,033.8,026.3,019.3,0000.0,0002.30,0008.19,0001.62
2024-04-26 22:10:00,SystemResetWarning,0816.1,5.00,000.00,025.1,023.1,000.0,033.7,026.5,021.0,0000.0,0002.27,0006.76,0001.59
2024-04-26 22:11:00,SystemResetWarning,0816.0,5.00,000.00,025.1,023.5,000.0,033.7,026.7,021.9,0000.0,0002.34,0007.34,0001.58
2024-04-26 22:12:00,SystemResetWarning,0816.1,5.01,000.00,025.1,023.7,000.0,033.6,026.8,022.8,0000.0,0002.38,0007.58,0001.59
2024-04-26 22:13:00,SystemResetWarning,0816.1,5.00,000.00,025.2,024.0,000.0,033.6,027.0,023.1,0000.0,0002.42,0007.57,0001.60
2024-04-26 22:14:00,SystemResetWarning,0816.1,4.99,000.00,025.2,024.2,000.0,033.6,027.1,023.1,0000.0,0002.50,0007.70,0001.60
2024-04-26 22:15:00,SystemResetWarning,0816.1,4.99,000.00,025.3,024.4,000.0,033.6,027.1,022.9,0000.0,0002.55,0007.85,0001.61
2024-04-26 22:16:00,SystemResetWarning,0816.1,5.01,000.00,025.3,024.5,000.0,033.6,027.2,023.1,0000.0,0002.62,0008.22,0001.60
2024-04-26 22:17:00,SystemResetWarning,0816.2,5.01,000.00,025.4,024.7,000.0,033.6,027.3,023.3,0000.0,0002.66,0008.41,0001.60
2024-04-26 22:18:00,SystemResetWarning,0816.2,4.99,000.00,025.4,024.8,000.0,033.7,027.4,023.2,0000.0,0002.68,0008.41,0001.61
2024-04-26 22:19:00,SystemResetWarning,0816.2,5.00,000.00,025.5,024.9,000.0,033.7,027.4,022.9,0000.0,0002.85,0009.82,0001.65
2024-04-26 22:20:00,SystemResetWarning,0816.2,5.00,000.00,025.5,025.0,000.0,033.7,027.5,022.7,0000.0,0002.98,0010.07,0001.69
2024-04-26 22:21:00,SystemResetWarning,0816.3,5.00,000.00,025.6,025.0,000.0,033.8,027.5,022.6,0000.0,0003.08,0011.11,0001.75
2024-04-26 22:22:00,SystemResetWarning,0816.4,5.01,000.00,025.6,025.1,000.0,033.8,027.6,022.9,0000.0,0003.04,0011.41,0001.76
2024-04-26 22:23:00,SystemResetWarning,0816.4,5.01,000.00,025.7,025.2,000.0,033.8,027.6,023.0,0000.0,0003.04,0011.36,0001.76
2024-04-26 22:24:00,SystemResetWarning,0816.4,5.00,000.00,025.7,025.2,000.0,033.9,027.6,022.8,0000.0,0003.03,0011.21,0001.78
2024-04-26 22:25:00,SystemResetWarning,0816.5,4.99,000.00,025.8,025.3,000.0,033.9,027.7,022.7,0000.0,0003.03,0011.28,0001.80
2024-04-26 22:26:00,SystemResetWarning,0816.4,4.99,000.00,025.8,025.3,000.0,033.9,027.7,022.9,0000.0,0002.99,0011.30,0001.81
2024-04-26 22:27:00,SystemResetWarning,0816.5,4.99,000.00,025.9,025.4,000.0,034.0,027.8,022.9,0000.0,0002.98,0011.04,0001.82
2024-04-26 22:28:00,SystemResetWarning,0816.5,5.00,000.00,025.9,025.4,000.0,034.0,027.8,022.9,0000.0,0002.96,0011.17,0001.83
2024-04-26 22:29:00,SystemResetWarning,0816.5,5.00,000.00,025.9,025.5,000.0,034.0,027.9,022.6,0000.0,0002.91,0010.65,0001.84
2024-04-26 22:30:00,SystemResetWarning,0816.4,5.00,000.00,026.0,025.5,000.0,034.1,027.9,022.9,0000.0,0002.86,0009.35,0001.84
2024-04-26 22:31:00,SystemResetWarning,0816.4,5.00,000.00,026.0,025.5,000.0,034.1,027.9,022.9,0000.0,0002.79,0009.18,0001.84
2024-04-26 22:32:00,SystemResetWarning,0816.5,5.00,000.00,026.1,025.6,000.0,034.2,028.0,023.2,0000.0,0002.82,0008.54,0001.85
2024-04-26 22:33:00,SystemResetWarning,0816.4,5.00,000.00,026.1,025.6,000.0,034.2,028.0,023.3,0000.0,0002.89,0007.78,0001.86
2024-04-26 22:34:00,SystemResetWarning,0816.5,5.01,000.00,026.1,025.6,000.0,034.2,028.0,022.9,0000.0,0002.96,0007.74,0001.87
2024-04-26 22:35:00,SystemResetWarning,0816.5,5.01,000.00,026.2,025.7,000.0,034.3,028.1,022.9,0000.0,0003.04,0007.99,0001.86
2024-04-26 22:36:00,SystemResetWarning,0816.4,5.00,000.00,026.2,025.7,000.0,034.3,028.1,022.9,0000.0,0003.03,0008.05,0001.87
2024-04-26 22:37:00,SystemResetWarning,0816.4,4.98,000.00,026.0,024.1,000.0,034.4,027.1,023.2,0000.0,0003.02,0008.14,0001.87
2024-04-26 22:38:00,SystemResetWarning,0816.3,5.01,000.00,025.6,022.4,000.0,034.4,026.1,023.7,0000.0,0003.08,0008.09,0001.89
2024-04-26 22:39:00,SystemResetWarning,0816.4,5.01,000.00,025.3,022.3,000.0,034.3,026.1,024.1,0000.0,0003.07,0007.90,0001.90
2024-04-26 22:40:00,SystemResetWarning,0816.4,4.98,000.00,025.2,022.7,000.0,034.2,026.3,024.0,0000.0,0003.05,0007.11,0001.90
2024-04-26 22:41:00,SystemResetWarning,0816.5,5.00,000.00,025.2,023.1,000.0,034.1,026.6,023.6,0000.0,0003.01,0006.94,0001.90
2024-04-26 22:42:00,SystemResetWarning,0816.5,5.01,000.00,025.3,023.4,000.0,034.0,026.8,023.0,0000.0,0003.07,0007.59,0001.91
2024-04-26 22:43:00,SystemResetWarning,0816.5,5.01,000.00,025.3,023.7,000.0,034.0,027.0,023.4,0000.0,0003.04,0008.08,0001.90
2024-04-26 22:44:00,SystemResetWarning,0816.6,4.99,000.00,025.3,024.0,000.0,033.9,027.1,023.7,0000.0,0003.02,0008.02,0001.91
2024-04-26 22:45:00,SystemResetWarning,0816.7,5.00,000.00,025.4,024.2,000.0,033.9,027.2,023.5,0000.0,0002.98,0008.00,0001.92
2024-04-26 22:46:00,SystemResetWarning,0816.7,5.00,000.00,025.4,024.4,000.0,033.9,027.3,023.3,0000.0,0002.87,0007.72,0001.92
2024-04-26 22:47:00,SystemResetWarning,0816.7,5.00,000.00,025.5,024.6,000.0,033.9,027.4,022.8,0000.0,0002.85,0007.53,0001.93
2024-04-26 22:48:00,SystemResetWarning,0816.8,5.00,000.00,025.5,024.7,000.0,033.9,027.4,022.8,0000.0,0002.88,0007.48,0001.92
2024-04-26 22:49:00,SystemResetWarning,0816.8,5.00,000.00,025.6,024.9,000.0,033.9,027.5,022.8,0000.0,0002.84,0007.55,0001.92
2024-04-26 22:50:00,SystemResetWarning,0816.9,5.00,000.00,025.6,025.0,000.0,033.9,027.5,023.3,0000.0,0002.81,0007.57,0001.92
2024-04-26 22:51:00,SystemResetWarning,0816.9,5.00,000.00,025.7,025.1,000.0,034.0,027.6,023.5,0000.0,0002.86,0007.71,0001.91
2024-04-26 22:52:00,SystemResetWarning,0816.9,5.00,000.00,025.8,025.2,000.0,034.0,027.7,023.1,0000.0,0002.86,0007.75,0001.91
2024-04-26 22:53:00,SystemResetWarning,0816.9,5.01,000.00,025.8,025.2,000.0,034.0,027.7,022.6,0000.0,0002.81,0008.06,0001.91
2024-04-26 22:54:00,SystemResetWarning,0816.9,4.99,000.00,025.9,025.3,000.0,034.1,027.8,022.4,0000.0,0002.76,0007.34,0001.92
2024-04-26 22:55:00,SystemResetWarning,0816.9,4.99,000.00,025.9,025.4,000.0,034.1,027.8,022.3,0000.0,0002.72,0007.74,0001.92
2024-04-26 22:56:00,SystemResetWarning,0816.9,5.01,000.00,026.0,025.4,000.0,034.1,027.9,022.5,0000.0,0002.76,0007.79,0001.92
2024-04-26 22:57:00,SystemResetWarning,0816.9,5.01,000.00,026.0,025.5,000.0,034.2,027.9,022.4,0000.0,0002.78,0007.70,0001.94
2024-04-26 22:58:00,SystemResetWarning,0816.9,4.98,000.00,026.0,024.8,000.0,034.2,027.5,022.5,0000.0,0002.76,0007.51,0001.94
2024-04-26 22:59:00,SystemResetWarning,0816.9,5.01,000.00,025.6,022.7,000.0,034.2,026.3,023.4,0000.0,0002.72,0007.11,0001.95
